Location: ?????
(32.7281°N, 34.9563°E)
Time: 17:15:28
(UTC+00:00)

Meteor 2-1 Rocket - Pass Details

Date: 29 October 2020
Orbit: 830 x 906 km, 81.3° (Epoch: 29 November)

Event Time Altitude Azimuth Distance (km) Brightness Sun altitude
Rises 15:33:28 0° 170° (S) 3,370 7.3 -9.4°
Reaches altitude 10° 15:35:58 10° 164° (SSE) 2,433 6.5 -9.9°
Maximum altitude 15:41:10 45° 93° (E) 1,112 4.4 -11.0°
Drops below altitude 10° 15:46:24 10° 22° (NNE) 2,442 6.3 -12.0°
Sets 15:48:53 0° 16° (NNE) 3,383 7.1 -12.6°
